Temp
20 20 20 20 16 13 15 18 20 20 20 20 20 20 19 20 18 16 18 18 18 16 16 16 16 16 15 14 15 15 15 15 15 16 16 16 16 16 16 16 16 16 15 15 16 16 15 15 15
19 20 20 19 14 15 15 17 20 19 20 20 20 20 19 19 19 19 19 18 17 17 17 17 16 16 16 16 16 16 16 15 16 16 16 15 15 15 15 15 15 15 15 15 15 15 15 15 15
19 20 20 14 12 15 16 18 18 18 19 20 20 20 20 19 19 19 19 19 18 16 17 17 17 17 17 17 16 16 16 16 16 16 16 15 15 15 15 15 15 14 14 15 15 15 15 15 15
19 20 18 15 15 16 19 19 17 17 19 20 20 19 19 19 20 20 19 19 18 17 17 17 17 17 17 17 16 16 16 16 16 15 15 15 15 15 15 15 15 15 15 15 15 15 15 15 15
19 19 14 15 15 17 18 20 18 16 18 19 19 18 18 20 19 19 19 19 18 17 17 17 17 17 17 17 17 17 16 16 16 15 15 15 15 15 15 15 15 15 15 15 15 15 15 15 15
19 17 14 15 16 18 20 20 18 18 19 19 18 18 19 20 20 19 18 18 18 17 17 17 17 17 17 17 17 16 16 16 16 16 16 16 16 15 15 15 15 15 15 15 15 15 15 15 15
16 13 15 16 16 18 20 21 18 18 18 18 20 16 19 20 20 19 18 17 17 16 17 17 17 17 16 16 16 16 16 16 16 16 16 16 16 15 15 15 15 14 14 14 14 14 14 14 14
19 14 16 16 17 19 20 21 21 20 19 20 20 17 18 22 20 18 17 17 16 16 16 16 17 16 16 17 16 16 16 16 16 15 15 15 15 15 15 15 14 14 14 14 14 14 14 14 14
18 13 13 16 19 19 20 19 21 21 20 19 20 20 20 21 20 18 17 17 16 16 16 16 16 16 16 16 16 16 15 15 15 15 15 15 14 14 14 14 14 14 14 13 13 13 13 13 13
16 12 15 16 20 19 20 19 21 19 19 19 20 20 20 20 20 20 19 19 19 19 18 17 16 16 16 16 16 16 15 15 15 15 15 15 15 14 14 14 14 13 13 13 13 13 13 13 13
16 14 15 19 21 21 20 19 20 18 15 19 21 22 21 20 19 19 19 19 20 20 18 18 17 16 16 16 16 15 15 15 15 15 15 15 14 14 14 14 14 13 13 13 13 13 13 13 13
16 17 18 20 21 19 18 20 18 19 21 21 22 21 21 20 20 20 20 19 19 19 18 18 17 16 15 15 15 15 15 15 15 15 15 15 14 14 14 13 13 13 13 12 12 12 12 12 12
15 16 19 19 19 19 19 18 17 19 21 21 21 20 20 21 21 20 20 19 19 19 19 18 17 16 15 14 14 14 14 14 14 14 14 14 14 14 13 13 13 12 12 12 11 11 11 11 11
17 18 17 18 19 19 17 16 18 20 21 21 21 21 20 20 21 20 20 20 19 19 18 18 17 16 15 15 14 14 14 14 13 13 13 13 13 13 13 13 12 12 11 11 11 11 11 11 11
17 16 14 17 18 16 16 14 13 23 21 21 20 21 21 22 21 21 22 21 21 20 19 18 17 16 15 14 14 13 13 13 13 13 13 13 13 13 13 12 12 11 11 11 10 10 10 10 10
16 15 14 16 14 17 17 16 16 23 19 20 22 23 23 23 23 23 22 22 21 20 19 18 17 16 15 14 13 13 12 12 12 12 12 12 13 13 12 12 11 11 11 10 10 10 10 10 10
12 13 11 13 15 14 14 14 15 20 19 20 22 23 23 23 23 23 22 22 21 21 19 19 17 17 15 14 12 12 11 11 12 12 12 12 12 12 12 11 11 10 10 10 9 9 9 9 9
12 11 12 14 15 13 12 13 16 19 17 18 20 21 22 22 23 23 22 21 21 20 20 18 17 16 15 13 11 10 10 10 11 11 11 11 11 11 11 11 10 10 9 9 9 9 8 8 8
14 12 12 14 16 14 13 14 15 17 16 14 16 18 19 21 23 22 22 20 19 19 19 18 17 16 14 13 11 10 11 11 11 11 11 11 11 11 11 10 10 9 9 8 8 8 7 7 7
12 13 14 15 14 12 14 14 16 14 16 17 17 18 19 21 23 22 21 20 19 19 19 18 16 16 15 13 12 11 12 12 11 11 11 10 10 10 10 10 9 9 8 8 7 7 7 7 6
12 12 14 13 14 12 11 13 12 13 15 16 16 18 19 21 20 22 21 20 19 19 19 19 16 16 14 13 11 11 10 9 10 10 10 10 10 9 9 9 9 8 8 7 7 7 6 6 5
14 13 13 12 12 13 13 14 14 14 13 13 15 18 19 22 21 22 21 20 20 20 19 18 16 14 13 12 12 12 12 12 12 11 11 10 9 9 9 9 8 8 7 7 7 6 6 6 5
14 14 13 13 10 10 10 10 15 13 13 14 16 19 22 23 23 23 21 21 20 19 19 17 15 14 13 12 11 11 11 11 12 11 10 9 9 9 8 8 7 7 7 6 6 6 6 6 5
12 13 11 8 9 11 12 11 15 12 14 15 15 19 22 24 25 22 20 20 20 19 18 16 14 13 13 12 11 11 11 12 11 11 10 9 9 8 8 7 7 6 6 6 5 5 5 5 5
12 11 8 8 6 10 12 9 17 16 16 14 16 20 23 23 24 21 20 21 20 19 18 15 14 13 13 12 12 12 12 12 12 11 10 10 9 8 8 8 7 6 5 5 5 5 4 5 4
10 12 11 9 11 15 6 10 14 14 15 18 17 18 19 19 20 21 22 22 20 19 17 15 14 14 13 13 14 13 13 12 12 11 10 9 9 8 8 7 6 5 5 5 4 4 4 4 4
10 9 12 9 -0 5 14 13 15 15 14 14 15 16 16 19 18 20 21 20 20 18 17 16 15 15 14 13 12 13 13 12 12 12 10 8 8 8 7 6 5 5 4 4 4 4 4 4 4
10 11 9 7 9 8 11 12 15 14 15 12 12 14 16 15 17 17 18 18 18 18 17 16 16 16 15 12 13 12 13 13 11 11 10 8 7 6 6 5 5 4 4 4 3 3 3 4 3
9 10 10 10 8 13 12 13 13 13 13 12 13 17 17 14 17 18 19 18 17 17 17 16 16 15 14 14 14 13 13 13 11 11 10 9 7 6 5 5 4 4 3 3 3 3 3 3 3
9 11 12 12 10 8 10 12 14 15 14 14 14 17 18 16 18 18 18 18 18 18 18 18 17 16 16 16 15 14 13 13 11 11 10 9 7 5 4 4 4 3 3 3 3 3 3 3 2
Height
1546 1545 1546 1546 1556 1559 1559 1547 1533 1533 1532 1531 1531 1531 1531 1531 1535 1548 1533 1534 1536 1538 1541 1543 1546 1548 1550 1551 1552 1553 1554 1555 1555 1555 1555 1556 1557 1557 1557 1557 1557 1558 1559 1558 1558 1559 1559 1558 1558
1545 1546 1546 1546 1563 1570 1560 1540 1534 1531 1530 1530 1531 1531 1531 1531 1530 1531 1531 1532 1535 1537 1539 1541 1544 1546 1548 1549 1550 1551 1551 1552 1552 1552 1553 1554 1554 1554 1555 1555 1556 1556 1556 1556 1556 1556 1556 1557 1556
1545 1546 1547 1551 1565 1566 1556 1534 1530 1530 1530 1530 1530 1530 1530 1528 1527 1527 1529 1530 1532 1535 1538 1540 1541 1543 1546 1547 1548 1549 1550 1550 1550 1551 1552 1552 1552 1552 1553 1553 1554 1555 1554 1553 1554 1554 1554 1554 1554
1545 1547 1548 1556 1558 1547 1537 1529 1529 1530 1529 1529 1529 1530 1528 1526 1526 1525 1527 1528 1531 1533 1535 1537 1539 1541 1543 1545 1546 1547 1548 1548 1549 1550 1550 1551 1552 1551 1551 1551 1551 1552 1552 1552 1552 1550 1551 1551 1552
1544 1545 1554 1556 1552 1539 1529 1525 1527 1528 1527 1526 1527 1527 1525 1523 1524 1525 1526 1527 1529 1531 1533 1536 1538 1540 1541 1543 1543 1545 1546 1547 1548 1549 1549 1550 1550 1550 1550 1550 1550 1550 1550 1550 1550 1550 1549 1550 1549
1544 1545 1559 1561 1548 1533 1527 1525 1527 1527 1525 1525 1527 1525 1522 1520 1521 1522 1524 1526 1528 1530 1531 1533 1535 1537 1539 1540 1542 1543 1544 1545 1547 1547 1547 1548 1548 1549 1550 1550 1549 1549 1550 1550 1549 1549 1549 1549 1548
1543 1549 1554 1549 1544 1535 1525 1524 1525 1523 1523 1523 1522 1523 1518 1516 1519 1520 1521 1523 1525 1527 1529 1531 1533 1534 1536 1538 1539 1540 1541 1543 1544 1545 1546 1546 1547 1547 1547 1547 1548 1548 1548 1548 1547 1547 1547 1546 1545
1542 1545 1548 1544 1541 1535 1523 1524 1522 1521 1520 1520 1521 1519 1515 1514 1515 1517 1519 1520 1522 1524 1526 1528 1530 1532 1533 1535 1537 1538 1539 1540 1541 1542 1543 1544 1545 1546 1546 1546 1546 1546 1545 1545 1545 1545 1545 1544 1543
1542 1550 1554 1542 1533 1528 1524 1524 1521 1520 1519 1517 1516 1514 1513 1513 1513 1514 1515 1516 1517 1519 1521 1523 1525 1528 1530 1532 1533 1534 1535 1537 1538 1539 1540 1541 1542 1543 1544 1545 1545 1545 1544 1545 1544 1544 1543 1542 1540
1541 1551 1541 1527 1524 1524 1522 1521 1519 1519 1515 1513 1513 1511 1511 1511 1511 1510 1509 1509 1511 1513 1515 1517 1519 1522 1525 1527 1528 1530 1532 1534 1535 1536 1537 1539 1540 1540 1541 1542 1542 1542 1542 1543 1542 1542 1540 1539 1539
1537 1540 1529 1523 1522 1521 1520 1518 1516 1514 1511 1506 1506 1506 1507 1507 1506 1506 1506 1506 1505 1509 1510 1512 1514 1517 1519 1521 1524 1526 1528 1530 1531 1533 1534 1535 1536 1537 1538 1539 1540 1540 1540 1539 1539 1539 1538 1538 1537
1534 1526 1525 1519 1519 1518 1518 1514 1511 1508 1496 1501 1502 1502 1501 1500 1499 1498 1499 1501 1502 1503 1505 1508 1510 1512 1514 1517 1519 1522 1524 1526 1528 1529 1531 1532 1533 1534 1535 1536 1537 1537 1537 1538 1537 1537 1536 1536 1535
1527 1521 1520 1517 1517 1515 1515 1510 1508 1498 1492 1497 1496 1495 1494 1493 1492 1492 1494 1496 1498 1498 1500 1502 1504 1506 1509 1511 1514 1517 1520 1522 1525 1526 1527 1528 1530 1531 1533 1534 1534 1535 1536 1536 1536 1535 1534 1533 1532
1521 1519 1516 1511 1510 1512 1511 1502 1507 1486 1490 1487 1488 1485 1485 1486 1484 1487 1487 1486 1488 1491 1493 1496 1498 1500 1503 1505 1509 1511 1515 1518 1519 1521 1523 1525 1526 1528 1529 1531 1532 1532 1533 1533 1533 1532 1531 1531 1529
1520 1521 1514 1501 1502 1505 1504 1504 1497 1481 1487 1483 1480 1479 1480 1477 1478 1475 1475 1478 1479 1481 1486 1488 1491 1493 1496 1499 1503 1506 1509 1511 1514 1516 1519 1520 1522 1524 1525 1526 1527 1528 1529 1529 1529 1527 1527 1526 1525
1523 1523 1526 1497 1499 1499 1502 1499 1477 1480 1482 1477 1475 1473 1472 1470 1468 1467 1468 1470 1472 1474 1476 1479 1482 1484 1487 1490 1495 1499 1502 1505 1508 1511 1513 1515 1517 1519 1520 1522 1524 1524 1525 1526 1525 1524 1524 1523 1523
1527 1529 1526 1509 1494 1496 1498 1493 1471 1474 1475 1472 1470 1468 1465 1462 1460 1458 1458 1461 1463 1465 1468 1470 1472 1474 1479 1483 1488 1492 1496 1498 1502 1505 1508 1511 1513 1514 1516 1517 1519 1520 1521 1522 1522 1521 1521 1520 1519
1524 1528 1519 1511 1495 1495 1496 1487 1474 1470 1471 1466 1464 1461 1457 1454 1446 1448 1449 1453 1455 1457 1457 1461 1463 1466 1471 1477 1482 1486 1489 1492 1496 1499 1502 1505 1507 1509 1511 1513 1515 1516 1517 1518 1518 1518 1516 1516 1514
1511 1516 1512 1500 1490 1492 1489 1481 1474 1466 1465 1461 1456 1451 1448 1444 1435 1437 1439 1443 1444 1446 1446 1448 1452 1456 1461 1466 1470 1474 1477 1483 1487 1491 1495 1498 1501 1503 1505 1508 1509 1511 1513 1514 1514 1514 1513 1512 1510
1510 1508 1504 1489 1487 1493 1483 1470 1464 1464 1455 1450 1449 1440 1435 1431 1426 1425 1429 1432 1432 1434 1435 1436 1441 1446 1451 1457 1462 1467 1470 1475 1480 1485 1488 1491 1494 1497 1499 1502 1504 1506 1508 1509 1510 1511 1510 1509 1508
1501 1506 1494 1492 1490 1486 1484 1463 1463 1451 1446 1440 1436 1430 1427 1418 1414 1413 1418 1422 1423 1423 1425 1427 1432 1438 1444 1450 1455 1460 1466 1470 1473 1475 1479 1483 1487 1491 1494 1496 1499 1501 1502 1503 1504 1506 1506 1505 1504
1487 1489 1490 1493 1497 1492 1481 1441 1450 1445 1438 1432 1427 1420 1416 1409 1408 1407 1408 1411 1414 1415 1418 1421 1426 1433 1439 1444 1448 1449 1453 1456 1460 1465 1471 1476 1481 1484 1487 1490 1493 1495 1497 1497 1498 1500 1502 1501 1501
1477 1485 1489 1489 1495 1493 1489 1494 1429 1433 1437 1426 1415 1413 1409 1403 1400 1399 1401 1403 1405 1409 1411 1415 1420 1427 1432 1436 1441 1445 1449 1454 1457 1460 1466 1471 1475 1478 1482 1485 1488 1489 1492 1493 1494 1495 1496 1497 1497
1480 1479 1488 1497 1499 1484 1479 1485 1407 1439 1427 1420 1412 1405 1401 1397 1395 1393 1396 1397 1400 1403 1406 1410 1416 1422 1425 1431 1434 1438 1443 1446 1449 1452 1456 1461 1466 1469 1473 1478 1482 1486 1488 1489 1491 1491 1491 1491 1492
1480 1486 1506 1509 1519 1483 1457 1475 1421 1423 1414 1412 1405 1397 1394 1393 1388 1389 1391 1391 1394 1397 1400 1405 1410 1414 1418 1421 1426 1430 1434 1437 1441 1445 1450 1455 1457 1459 1463 1468 1472 1479 1484 1486 1486 1486 1487 1487 1487
1476 1476 1485 1503 1481 1447 1475 1450 1420 1410 1404 1401 1401 1396 1391 1387 1387 1383 1387 1387 1390 1392 1395 1400 1405 1408 1410 1412 1415 1420 1424 1429 1434 1440 1444 1446 1451 1456 1460 1462 1465 1469 1474 1478 1481 1484 1484 1483 1482
1471 1478 1458 1473 1506 1494 1433 1419 1406 1407 1405 1400 1399 1397 1384 1375 1380 1382 1383 1384 1385 1390 1391 1394 1400 1403 1406 1408 1409 1412 1419 1422 1424 1429 1435 1440 1445 1449 1456 1459 1461 1463 1466 1470 1473 1475 1476 1478 1478
1462 1461 1472 1473 1473 1476 1442 1428 1408 1407 1405 1401 1395 1394 1384 1377 1376 1378 1378 1385 1386 1388 1390 1393 1395 1397 1399 1403 1406 1409 1410 1415 1418 1422 1425 1432 1437 1441 1446 1449 1454 1457 1460 1462 1466 1468 1468 1468 1468
1464 1462 1457 1453 1455 1436 1438 1421 1407 1402 1399 1402 1396 1391 1387 1386 1381 1380 1381 1383 1387 1390 1390 1389 1390 1390 1393 1395 1397 1401 1403 1405 1409 1412 1415 1421 1426 1433 1437 1438 1444 1449 1454 1456 1458 1460 1463 1461 1460
1450 1446 1438 1439 1438 1444 1434 1422 1389 1391 1392 1392 1391 1390 1389 1387 1384 1382 1383 1384 1385 1387 1386 1384 1383 1383 1384 1385 1388 1391 1394 1397 1398 1401 1405 1410 1414 1420 1428 1431 1434 1438 1442 1447 1450 1452 1454 1454 1453
Wind_Speed
4 4 3 1 4 5 4 5 1 2 1 2 4 3 6 4 5 4 6 13 14 18 18 18 15 15 16 14 13 12 11 10 10 10 9 6 5 5 5 5 5 5 6 5 5 4 3 3 4
4 4 2 2 4 2 5 5 5 4 4 8 6 6 2 5 5 4 13 15 16 18 19 17 16 17 17 15 13 14 14 14 14 13 11 8 8 8 8 7 6 6 6 6 8 6 5 6 6
4 3 1 4 3 4 4 5 6 3 6 6 4 3 3 4 9 6 12 14 17 19 20 19 18 17 17 16 15 16 16 15 14 11 8 8 8 8 7 7 8 8 9 9 10 10 10 10 10
4 2 2 3 5 7 6 5 6 6 4 5 3 2 4 8 4 7 12 13 18 21 22 20 20 18 17 17 17 15 14 13 10 8 8 7 7 6 7 7 7 7 8 9 10 10 10 10 10
4 2 2 1 5 6 6 5 16 5 4 6 8 4 5 8 13 9 10 12 17 22 25 22 21 19 18 17 15 14 13 10 9 8 7 6 6 5 6 6 6 6 7 7 7 7 7 7 8
2 2 2 3 5 5 4 10 9 6 6 4 5 3 5 10 14 13 13 13 16 21 24 23 22 20 19 18 17 15 13 11 10 8 6 4 3 3 3 3 2 2 2 2 3 4 5 5 6
4 3 4 4 5 5 5 12 7 7 8 8 5 6 6 13 13 14 13 15 17 22 25 24 22 21 20 20 18 16 15 14 13 11 9 6 5 4 3 3 2 1 1 2 4 5 6 7 7
2 4 3 4 3 6 2 7 3 10 11 7 15 7 6 11 16 17 17 18 20 23 26 26 25 24 24 24 21 18 16 15 14 12 10 8 6 6 5 4 3 2 2 4 6 7 8 9 9
3 3 3 5 3 5 2 3 5 5 7 11 13 19 13 8 16 20 22 24 25 26 27 29 28 28 28 27 23 20 18 16 15 13 10 8 7 7 7 6 5 4 5 5 6 8 10 11 13
4 3 8 6 2 4 4 8 8 5 10 11 19 24 25 21 19 24 26 28 29 28 29 31 31 31 31 30 26 23 22 21 19 17 14 11 9 8 8 8 7 7 7 8 9 10 12 12 13
6 6 6 9 11 10 5 6 9 7 9 19 24 28 29 29 28 29 30 31 30 28 31 31 32 33 33 32 29 27 26 24 22 19 16 13 11 10 10 10 10 10 9 9 10 12 13 15 15
4 15 17 14 21 6 5 7 7 19 36 28 24 20 23 30 34 35 34 33 32 32 32 32 33 34 35 33 32 29 28 26 25 22 19 16 13 12 12 13 13 12 11 11 12 13 15 16 17
7 7 17 23 21 19 16 19 13 27 41 31 28 29 30 29 31 32 34 35 35 35 34 34 35 36 36 36 35 34 31 29 26 24 21 19 17 16 15 14 14 13 12 12 13 14 16 17 17
3 10 15 18 28 24 9 14 8 40 36 29 25 36 39 39 41 39 39 40 40 38 38 36 37 37 37 38 37 36 34 30 29 26 23 21 20 19 18 17 16 15 13 13 15 16 17 18 17
5 8 8 15 16 8 9 8 11 40 33 35 31 31 30 34 38 41 39 39 39 37 38 39 38 39 39 39 38 38 35 34 32 29 27 25 24 23 22 19 17 16 16 16 17 17 18 18 18
3 1 5 2 8 5 12 14 13 25 27 32 32 33 34 36 38 39 40 40 40 38 38 37 39 41 41 41 40 39 38 36 34 32 30 28 27 26 23 21 19 17 16 17 18 18 19 19 19
2 6 8 12 14 5 7 11 11 12 21 27 33 36 39 41 41 44 44 41 39 39 39 38 40 42 42 41 39 39 39 38 35 33 32 30 29 27 26 23 21 19 18 18 18 17 18 18 19
8 6 6 8 4 5 7 16 15 30 17 27 35 37 41 42 48 44 43 42 42 40 42 41 41 41 42 40 38 38 39 39 37 35 34 32 31 30 27 25 23 21 19 17 16 17 17 18 19
3 6 8 7 10 6 10 17 18 32 22 23 35 41 46 54 58 57 49 40 38 42 46 47 45 43 42 43 43 43 43 42 41 38 36 35 33 31 29 28 26 22 19 16 14 15 16 17 19
12 18 20 16 15 6 16 23 19 12 23 34 32 41 47 50 53 56 48 36 32 35 41 47 48 45 43 44 44 43 42 42 41 38 38 36 34 32 31 30 28 24 20 16 13 14 16 17 17
15 15 18 19 6 5 9 20 12 14 24 36 38 46 49 56 54 53 46 36 32 35 38 44 47 45 43 43 43 43 41 40 40 42 41 39 36 34 33 32 30 26 23 17 13 14 16 16 16
24 12 14 9 4 12 4 24 7 8 12 12 24 38 43 51 50 47 40 32 31 32 35 40 44 42 41 42 43 46 44 45 46 45 44 41 38 37 35 34 32 28 24 19 15 14 17 17 16
21 4 6 3 4 5 4 5 4 8 7 12 15 34 42 45 46 43 35 25 25 29 33 37 41 40 40 41 42 43 44 42 42 43 43 41 40 39 37 35 33 31 27 22 17 14 17 17 17
1 3 4 4 1 11 10 9 7 6 7 6 11 32 34 33 38 36 20 18 24 29 31 35 38 38 39 39 41 43 41 42 44 44 43 43 43 42 40 37 36 33 30 24 19 15 17 17 17
4 5 3 3 1 12 9 6 20 7 9 11 14 30 36 39 37 34 20 22 26 28 31 35 37 39 38 40 40 40 41 43 43 44 42 43 45 45 44 40 38 36 31 26 21 17 16 18 18
11 10 7 7 10 20 4 10 11 11 16 26 27 34 40 41 38 30 19 22 24 28 32 35 36 38 41 41 42 41 41 43 43 43 44 44 43 43 42 40 39 36 33 29 24 19 17 19 19
2 6 11 2 2 1 9 14 10 2 8 6 16 28 35 33 34 23 23 23 24 27 31 33 35 37 41 44 45 44 43 45 45 43 44 44 42 42 40 39 39 37 34 31 26 22 18 20 22
7 3 1 2 5 8 11 6 15 9 5 8 15 22 40 26 21 21 19 18 21 23 27 29 34 38 42 44 45 46 45 46 45 43 43 45 45 43 40 41 41 38 35 31 28 24 21 22 23
2 5 5 3 4 12 16 14 6 8 1 6 12 27 32 21 5 5 9 14 17 20 25 28 35 41 43 42 45 49 49 50 49 46 44 45 45 44 42 42 42 39 36 33 29 26 24 25 24
7 16 17 10 11 5 5 11 30 29 18 20 22 29 27 15 8 7 9 12 16 22 28 31 35 40 39 40 46 47 52 53 53 52 49 47 47 44 42 43 43 41 38 35 33 29 27 26 24
Wind_Direction
180 203 223 302 36 57 277 270 256 176 159 161 148 156 181 135 164 206 174 176 184 190 194 195 193 191 192 184 191 194 197 199 203 212 217 218 213 219 226 221 221 219 223 238 273 287 288 282 288
181 205 203 91 87 23 270 255 212 212 171 140 138 125 147 216 186 191 170 182 193 195 194 194 193 195 196 199 200 199 203 203 211 216 214 218 229 234 234 235 236 236 240 250 259 263 266 266 264
186 191 190 101 122 199 229 241 216 204 169 195 165 198 199 210 200 212 196 202 197 195 197 195 197 199 200 199 202 204 207 211 216 230 224 230 234 241 248 250 248 251 255 264 271 270 266 266 266
181 183 70 95 235 257 232 238 197 159 191 199 160 233 244 211 195 206 201 207 202 196 195 197 200 203 204 206 209 212 209 217 221 215 216 223 229 234 244 253 264 268 271 272 273 276 275 271 268
171 132 62 300 255 257 254 224 182 179 197 199 184 251 239 232 225 217 213 211 208 199 198 199 202 204 208 211 208 205 210 207 211 212 212 215 224 233 240 244 251 257 263 269 277 285 288 286 280
121 91 67 238 250 257 260 196 182 206 209 186 199 209 247 235 230 228 221 217 212 211 206 205 206 208 210 205 201 201 204 203 202 200 199 201 217 228 233 229 218 216 227 251 282 302 306 306 305
115 94 219 235 257 296 233 184 198 210 198 221 209 170 241 235 222 222 223 220 215 211 214 215 214 214 210 206 203 203 201 198 195 188 187 195 215 229 228 216 208 229 295 321 325 323 324 319 317
162 106 284 257 254 269 262 184 246 208 234 230 210 233 245 258 218 213 219 223 219 217 217 219 219 218 215 213 212 209 206 203 196 192 194 203 209 219 218 220 214 233 299 315 322 323 322 320 316
197 68 241 247 229 266 209 241 231 244 237 213 217 240 251 250 214 214 218 221 222 221 222 222 222 220 217 216 217 215 210 208 205 202 205 209 210 210 217 222 230 255 280 295 312 319 322 321 320
160 147 226 220 227 236 253 234 254 229 240 237 240 245 249 250 233 224 225 229 228 227 226 225 225 223 221 220 219 218 215 212 209 208 208 210 221 232 239 241 251 263 271 290 303 305 310 317 316
193 212 223 264 265 293 251 240 242 221 255 235 244 262 253 247 245 245 243 245 253 242 233 232 229 226 225 225 222 220 219 215 213 213 215 219 225 237 247 255 261 268 279 287 291 297 304 307 309
224 240 241 264 277 283 258 267 238 230 256 266 272 271 261 256 250 249 248 249 248 245 242 237 233 230 227 225 225 225 223 219 217 217 219 224 232 239 242 245 251 260 268 276 287 295 300 305 309
223 252 254 260 266 273 281 255 253 267 274 267 264 260 256 256 255 257 256 253 249 246 244 242 237 234 230 227 226 226 224 224 222 222 221 223 227 235 242 248 254 258 265 275 285 292 301 307 311
272 279 279 278 274 273 230 268 231 270 282 279 267 257 254 253 258 261 259 257 250 249 245 242 240 238 234 233 229 229 227 225 224 224 224 225 227 234 241 248 253 259 264 271 280 288 294 298 305
293 310 308 261 262 238 230 285 223 260 266 276 271 266 261 256 256 256 258 255 257 257 249 244 241 240 236 235 232 230 229 227 227 227 226 226 231 234 236 242 249 254 262 273 281 290 297 303 308
314 342 303 313 145 241 162 264 248 266 258 265 269 272 267 259 259 260 259 257 256 254 251 248 242 239 236 234 233 231 229 228 226 226 227 228 231 233 235 238 240 246 256 269 279 288 294 300 305
270 237 218 303 207 156 184 249 266 259 236 257 273 275 273 268 263 260 258 256 256 258 254 249 242 239 235 233 231 230 229 229 227 226 227 228 230 232 233 234 238 243 253 267 278 287 293 297 303
222 219 246 240 246 194 231 251 269 275 253 256 268 271 271 269 265 265 264 263 260 257 255 248 244 237 231 230 227 228 227 228 227 226 227 228 229 230 231 233 234 237 245 258 272 285 293 296 302
209 228 235 251 268 235 234 245 250 266 273 259 267 271 269 266 272 274 275 274 264 256 250 243 237 235 228 224 223 223 225 225 225 224 226 227 228 229 230 231 233 235 242 254 269 284 292 297 304
243 256 262 270 257 215 266 262 262 256 264 264 261 266 268 271 271 274 276 275 264 253 249 242 234 234 228 226 226 226 227 226 228 226 228 228 229 229 230 231 231 232 237 249 266 283 288 293 306
233 237 254 257 317 241 290 276 260 250 253 262 259 261 267 268 271 273 276 272 262 253 246 243 235 231 227 225 223 225 226 227 226 225 226 227 227 228 229 230 230 231 234 241 257 282 289 294 306
261 225 256 264 304 278 129 293 235 251 245 253 256 264 263 270 273 275 277 269 258 254 244 238 232 229 226 226 226 226 226 224 226 228 229 227 226 228 229 230 230 231 233 237 246 266 283 287 296
254 205 256 238 229 322 198 264 184 209 248 247 250 256 266 276 278 278 278 266 251 247 244 235 226 225 227 228 229 229 228 230 234 233 231 229 229 228 230 230 230 230 232 234 242 257 276 279 287
147 90 44 57 90 266 186 200 300 175 215 260 258 257 262 274 278 281 259 238 238 239 238 230 224 224 228 229 229 229 230 231 232 233 230 229 230 229 229 230 231 231 232 235 241 251 268 273 279
154 107 297 309 63 252 184 216 254 267 239 226 249 256 270 272 262 279 254 236 228 231 231 226 223 225 227 226 227 227 229 232 233 236 234 232 230 230 228 228 229 231 233 235 237 245 262 275 282
213 189 195 209 256 274 119 247 268 224 241 252 273 274 280 280 278 266 242 244 229 227 225 226 226 229 227 224 223 224 226 231 234 237 237 236 237 237 233 230 229 228 230 232 235 245 260 272 280
183 189 235 326 43 351 261 272 281 234 279 300 298 317 298 281 275 266 246 233 223 230 231 231 231 231 230 229 226 225 228 231 232 235 237 238 239 239 236 235 232 229 229 231 233 239 253 268 276
190 173 78 209 201 249 274 257 266 295 280 338 350 332 328 309 279 258 232 228 232 240 242 239 237 237 236 232 233 232 230 232 234 235 237 238 239 239 235 233 232 230 230 230 231 237 245 256 264
192 243 233 211 191 253 260 270 190 215 135 293 306 317 331 312 311 230 227 236 247 251 247 242 241 239 238 237 238 238 235 236 235 236 236 238 239 240 235 231 230 230 231 230 232 237 245 253 260
221 261 239 237 240 219 233 257 284 271 275 287 279 285 303 285 238 264 284 277 274 266 253 251 245 243 241 244 244 244 242 242 240 238 237 237 237 236 235 230 229 230 229 230 233 237 244 251 257